Regional Weather Roundup
Issued by NWS Kansas City/Pleasant Hill, MO

Home | Current Version | Previous Version | Graphics & Text | Print | Product List | Glossary Off
Versions: 1 2 3 4 5 6 7 8 9 10 11 12 13 14 15 16 17 18 19 20 21 22 23 24 25 26 27 28 29 30 31 32 33 34 35 36 37 38 39 40 41 42 43 44 45 46 47 48 49 50

000
ASUS43 KEAX 051310
RWREAX

WEATHER ROUNDUP FOR EASTERN KANSAS AND NORTHWEST MISSOURI
NATIONAL WEATHER SERVICE KANSAS CITY/PLEASANT HILL MO
700 AM CST MON DEC 05 2016

KSZ040-057-103>105-MOZ028-029-037-043-051400-
...KANSAS CITY METROPOLITAN AREA...

CITY           SKY/WX    TMP DP  RH WIND       PRES   REMARKS
K.C. INTL      CLEAR     30  27  88 S8        29.90F WCI  22
K.C. DOWNTOWN  CLEAR     35  33  92 S3        29.91F
LEES SUMMIT    CLEAR     35  33  92 S7        29.92F WCI  29
OLATHE - IXD   CLEAR     31  30  96 S9        29.90F WCI  23
OLATHE - OJC   CLEAR     31  31 100 S5        29.91F WCI  26
LAWRENCE       CLEAR     31  31 100 E6        29.90F WCI  25

$$

MOZ001>008-011>017-020>025-030>033-038>040-044>046-053-054-051400-
...NORTHERN AND CENTRAL MISSOURI...

CITY           SKY/WX    TMP DP  RH WIND       PRES   REMARKS
ST. JOSEPH     CLEAR     30  29  96 S7        29.89F WCI  23
MOSBY            N/A     32  32 100 CALM      29.93S
WARRENSBURG    CLEAR     32  30  93 S5        29.95F WCI  27
WHITEMAN AFB   CLEAR     29  29 100 S7        29.95F WCI  22
CLINTON        CLEAR     30  30 100 CALM      29.96F
SEDALIA        CLEAR     30  28  92 S7        29.98S FOG     WCI  23
WARSAW         NOT AVBL
CHILLICOTHE      N/A     29  28  96 SE3       29.96R
KIRKSVILLE     FOG       30  28  92 S6        29.97R VSB 1/4 WCI  24

$$

MOZ041-047>049-056>058-063>065-088>090-097-051400-
...EASTERN AND SOUTHERN MISSOURI...

CITY           SKY/WX    TMP DP  RH WIND       PRES   REMARKS
ST. LOUIS INTL CLOUDY    37  32  82 SE7       30.04S WCI  32
SPIRIT OF STL  CLOUDY    26  26 100 CALM      30.04S
COLUMBIA       FOG       29  28  96 SE7       29.99S VSB 1/4 WCI  22
JEFFERSON CITY FOG       26  25  96 SE6       30.01S VSB 3/4 WCI  19
ROLLA          CLOUDY    33  33 100 S9        30.00R WCI  25
OSAGE BEACH    CLOUDY    30  28  93 SE5       30.00S FOG     WCI  25
SPRINGFIELD    FOG       31  30  96 SE6       29.95F VSB 1/4 WCI  25
BRANSON        FOG       30  30 100 CALM      29.98S VSB 1/8
JOPLIN         CLOUDY    33  33 100 CALM      29.95F FOG
WEST PLAINS    CLOUDY    31  30  96 CALM      30.00S

$$

IAZ060-094-KSZ022-034>040-054-083-096-NEZ052-066-093-051400-
...KANSAS...SOUTHEAST NEBRASKA AND IOWA...

CITY           SKY/WX    TMP DP  RH WIND       PRES   REMARKS
TOPEKA         CLEAR     34  30  85 CALM      29.88F
MANHATTAN      CLEAR     33  30  88 CALM      29.83F
EMPORIA        CLEAR     29  28  96 SE7       29.87F FOG     WCI  22
CHANUTE        FOG       35  34  96 S8        29.91F VSB 1/4 WCI  29
WICHITA        PTCLDY    28  25  88 S7        29.84S WCI  21
OMAHA          CLOUDY    35  30  82 SE14      29.78F WCI  26
LINCOLN        PTCLDY    34  28  79 S12       29.75F WCI  25
FALLS CITY     CLEAR     34  31  88 S12       29.84F WCI  25
LAMONI         FOG       30  29  96 S8        29.88S VSB 3/4 WCI  22
DES MOINES     CLOUDY    32  31  96 S10       29.86F FOG     WCI  24

$$




USA.gov is the U.S. government's official web portal to all federal, state and local government web resources and services.